Location: Umburanas
(4.5000°S, 37.9667°W)
Time: 07:39:05
(UTC+00:00)

ATLAS 2AS CENTAUR R/B - Pass Details

Date: 19 November 2019
Orbit: 926 x 1286 km, 63.7° (Epoch: 02 December)

Event Time Altitude Azimuth Distance (km) Brightness Sun altitude
Rises 21:01:38 0° 205° (SSW) 3,898 6.4 -8.9°
Reaches altitude 10° 21:04:12 10° 206° (SSW) 2,988 5.8 -9.5°
Maximum altitude 21:11:24 82° 292° (WNW) 1,202 3.0 -11.2°
Drops below altitude 10° 21:19:11 10° 19° (NNE) 3,213 4.8 -13.0°
Enters shadow 21:21:55 - 20° (NNE) 4,167 5.4 -13.6°
